[[{"header":{"parameterUnit":"m.s-1","parameterCategory":1,"la1":30.2991,"la2":30.254,"lo1":-89.0895,"lo2":-89.0444,"dy":0.0017,"dx":0.0017,"nx":28,"ny":28,"refTime":"2023-11-22T03:00:00:Z","depth":0,"parameterNumber":2,"parameterNumberName":"U-component_of_WINDS"},"data":[0,0,0,0,0,0,0,0,0,0,0,0,0,0,0,0,0,0,0,0,0,0,0,0,0,0,0,0,0,0,0,0,0,0,0,0,0,0,0,0,0,0,0,0,0,0,0,0,0,0,0,0,0,0,0,0,0,0,0.35,0.3499,0,0.3448,0.3447,0.3446,0.3457,0.3458,0.3459,0.3459,0.3403,0.3401,0.3399,0,0,0,0,0,0,0,0,0,0,0,0,0,0.3606,0.3604,0.35,0.3499,0.3498,0.3448,0.3447,0.3446,0.3457,0.3458,0.3459,0.346,0.3404,0.3401,0.3398,0,0,0,0,0,0,0,0,0,0,0,0,0,0.3557,0.3603,0.35,0.3498,0.3497,0.3448,0.3447,0.3446,0.3456,0.3458,0.3459,0.346,0.3405,0.3401,0.3398,0.3347,0,0,0.3387,0.3385,0,0,0,0,0,0,0,0,0.356,0.3553,0.3498,0.3498,0.3497,0.346,0.3464,0.3413,0.3456,0.3472,0.346,0.3461,0.3421,0.3416,0.3403,0.3345,0.3342,0.3387,0.3384,0.3383,0.3382,0,0,0,0,0,0,0,0.3563,0.3556,0.3479,0.3498,0.3497,0.3498,0.3493,0.3454,0.3439,0.347,0.3471,0.3465,0.3421,0.3406,0.3402,0.3341,0.3387,0.3384,0.3381,0.338,0.3238,0.3237,0,0,0,0,0,0,0.3568,0.3558,0.3481,0.3477,0.3533,0.3495,0.3489,0.347,0.3439,0.3436,0.3464,0.3465,0.3412,0.3406,0.34,0.3338,0.3383,0.338,0.3378,0.324,0.3238,0.3236,0,0,0,0,0,0,0.357,0.3561,0.3483,0.3518,0.3508,0.3492,0.3471,0.3469,0.3454,0.3434,0.3431,0.3452,0.3413,0.3405,0.336,0.3336,0.3378,0.3375,0.3242,0.3239,0.3237,0.3213,0,0,0,0,0,0,0.3573,0.3562,0.3543,0.3518,0.3506,0.3445,0.3469,0.3467,0.3449,0.3451,0.3423,0.3419,0.3413,0.3366,0.3357,0.3332,0.3372,0.3244,0.3241,0.3238,0.3216,0.321,0.3205,0,0,0,0,0,0.3577,0.3537,0.3542,0.3532,0.3482,0.3443,0.3437,0.3431,0.3447,0.3427,0.3414,0.342,0.3341,0.3361,0.3351,0.3324,0.3245,0.3242,0.3238,0.3218,0.3211,0.3205,0,0,0,0,0,0,0.3558,0.3534,0.3538,0.349,0.3469,0.3445,0.342,0.3424,0.3397,0.34,0.3394,0.3388,0.3342,0.3329,0.3352,0.3274,0.3295,0.3289,0.3283,0.3276,0.3271,0.3274,0.3369,0,0,0,0,0,0.3549,0.352,0.35,0.3459,0.3448,0.3436,0.3419,0.3417,0.3394,0.3385,0.3369,0.3346,0.3316,0.3296,0.3267,0.3215,0.3209,0.3192,0.3187,0.3182,0.3177,0.3148,0.314,0.3224,0.3224,0.3224,0,0,0.3528,0.3512,0.3493,0.3455,0.3438,0.3407,0.3428,0.3395,0.3372,0.338,0.3336,0.3324,0.3298,0.325,0.3227,0.3237,0.3152,0.3178,0.3175,0.3171,0.3143,0.3135,0.3128,0.3222,0.3222,0.3223,0,0,0.3475,0.346,0.3424,0.3407,0.3382,0.3375,0.3366,0.3342,0.3334,0.3292,0.3297,0.3269,0.3217,0.3199,0.3182,0.3124,0.3128,0.3114,0.3085,0.3057,0.305,0.3044,0.3022,0.3014,0.3109,0.3109,0.3109,0,0.3452,0.3407,0.3404,0.3371,0.3353,0.3361,0.3323,0.3307,0.3274,0.3261,0.3273,0.3209,0.3192,0.3139,0.3125,0.3112,0.3101,0.3116,0.3052,0.3046,0.304,0.3019,0.301,0.3108,0.3108,0.3108,0.3108,0,0.3379,0.3348,0.3322,0.329,0.327,0.3235,0.3226,0.3206,0.3207,0.3197,0.3153,0.3134,0.3101,0.3089,0.3089,0.3036,0.3043,0.3054,0.3074,0.3031,0.301,0.3002,0.3105,0.3106,0.3106,0.3107,0,0,0.331,0.3279,0.3269,0.3255,0.3229,0.3204,0.317,0.3139,0.3121,0.3098,0.3068,0.3025,0.3035,0.3017,0.3014,0.299,0.2943,0.3004,0.3003,0.2992,0.2883,0.2873,0.2864,0.2947,0.2946,0.2945,0.2884,0,0.3253,0.3192,0.3189,0.3133,0.3104,0.3111,0.3081,0.3061,0.3052,0.3026,0.3016,0.2985,0.3001,0.299,0.2966,0.2954,0.2921,0.2959,0.2917,0.2916,0.2921,0.2853,0.2843,0.2787,0.2877,0.2875,0.2874,0,0.3177,0.3153,0.3094,0.3073,0.306,0.3033,0.3004,0.2979,0.2957,0.2953,0.2933,0.2935,0.2898,0.2922,0.2872,0.2897,0.2881,0.2872,0.287,0.2864,0.2891,0.2844,0.2769,0.276,0.2862,0.2863,0.2864,0,0.3131,0.3084,0.3042,0.303,0.3005,0.2985,0.2973,0.2953,0.2935,0.291,0.2898,0.2869,0.2852,0.283,0.2824,0.2842,0.2773,0.2796,0.2766,0.2766,0.2749,0.275,0.2669,0.2742,0.2742,0.2743,0.2743,0,0.3066,0.3029,0.3021,0.2995,0.2955,0.2952,0.2912,0.2901,0.2883,0.2855,0.2861,0.2834,0.2829,0.2801,0.2796,0.2754,0.2747,0.2741,0.274,0.2739,0.274,0.2727,0.2729,0.274,0.2741,0.2741,0.2742,0,0.3005,0.2999,0.2954,0.2934,0.2928,0.2899,0.2881,0.2856,0.2849,0.2814,0.2805,0.2793,0.2761,0.2753,0.2714,0.2711,0.2661,0.2665,0.2668,0.2668,0.2638,0.264,0.2543,0.253,0.2614,0.2613,0.2613,0,0.2963,0.2935,0.2913,0.2895,0.2882,0.2853,0.2835,0.2832,0.2813,0.2786,0.2764,0.2733,0.2707,0.2655,0.2643,0.2613,0.2615,0.2583,0.261,0.261,0.2612,0.2613,0.261,0.2577,0.2576,0.2575,0.2575,0,0.2888,0.2887,0.2861,0.2833,0.2812,0.279,0.2769,0.2754,0.2748,0.2726,0.2694,0.2674,0.2635,0.2603,0.2574,0.2562,0.2566,0.2567,0.2558,0.2556,0.2559,0.2555,0.2652,0.2568,0.2569,0.257,0.257,0.257,0.2834,0.281,0.279,0.2761,0.2745,0.2726,0.2701,0.2692,0.2665,0.2633,0.2634,0.2598,0.2577,0.2539,0.2525,0.2496,0.2506,0.2493,0.249,0.2486,0.2482,0.2566,0.2491,0.2491,0.2491,0.2492,0.2492,0,0.2758,0.2746,0.272,0.2691,0.2668,0.2677,0.2655,0.2634,0.2603,0.2584,0.2559,0.2522,0.2491,0.2477,0.2447,0.2427,0.2429,0.2419,0.2419,0.2416,0.2476,0.2486,0.2418,0.2418,0.2418,0.2418,0.2418,0.2418,0.2716,0.2674,0.2671,0.2622,0.261,0.2575,0.2562,0.2544,0.2529,0.2487,0.2462,0.2454,0.2436,0.2405,0.2378,0.2375,0.2362,0.2351,0.2349,0.2405,0.2412,0.2419,0.2428,0.2349,0.2349,0.2291,0.229,0.229]},{"header":{"parameterUnit":"m.s-1","parameterCategory":1,"la1":30.2991,"la2":30.254,"lo1":-89.0895,"lo2":-89.0444,"dy":0.0017,"dx":0.0017,"nx":28,"ny":28,"refTime":"2023-11-22T03:00:00:Z","depth":0,"parameterNumber":3,"parameterNumberName":"V-component_of_WINDS"},"data":[0,0,0,0,0,0,0,0,0,0,0,0,0,0,0,0,0,0,0,0,0,0,0,0,0,0,0,0,0,0,0,0,0,0,0,0,0,0,0,0,0,0,0,0,0,0,0,0,0,0,0,0,0,0,0,0,0,0,-5.1676,-5.1678,0,-5.1845,-5.1847,-5.1849,-5.1777,-5.1773,-5.1768,-5.1765,-5.1932,-5.194,-5.1949,0,0,0,0,0,0,0,0,0,0,0,0,0,-5.1286,-5.1294,-5.1676,-5.1678,-5.168,-5.1844,-5.1847,-5.1849,-5.1777,-5.1772,-5.1767,-5.1763,-5.193,-5.194,-5.1949,0,0,0,0,0,0,0,0,0,0,0,0,0,-5.1455,-5.1296,-5.1675,-5.1664,-5.1665,-5.1844,-5.1847,-5.185,-5.1778,-5.1772,-5.1766,-5.176,-5.1927,-5.1939,-5.1951,-5.2149,0,0,-5.1989,-5.1994,0,0,0,0,0,0,0,0,-5.1446,-5.1469,-5.1664,-5.1665,-5.1666,-5.1783,-5.1771,-5.195,-5.178,-5.1735,-5.1765,-5.1757,-5.1888,-5.1903,-5.1948,-5.2157,-5.2164,-5.199,-5.1997,-5.2003,-5.2006,0,0,0,0,0,0,0,-5.1434,-5.1462,-5.1742,-5.1667,-5.1668,-5.1649,-5.1666,-5.1804,-5.1843,-5.1739,-5.1734,-5.1755,-5.1887,-5.1936,-5.1951,-5.2167,-5.1989,-5.2,-5.2008,-5.2013,-5.2548,-5.2554,0,0,0,0,0,0,-5.1423,-5.1452,-5.1737,-5.1747,-5.1539,-5.1661,-5.168,-5.1752,-5.1842,-5.185,-5.176,-5.1751,-5.1918,-5.1937,-5.1957,-5.2196,-5.2002,-5.2014,-5.2021,-5.2541,-5.2549,-5.2556,0,0,0,0,0,0,-5.1415,-5.1449,-5.173,-5.1599,-5.1633,-5.1674,-5.1755,-5.1759,-5.1807,-5.1858,-5.1864,-5.1803,-5.1914,-5.1939,-5.2102,-5.22,-5.202,-5.2031,-5.2533,-5.2543,-5.2553,-5.2675,0,0,0,0,0,0,-5.1404,-5.1446,-5.1524,-5.1601,-5.1641,-5.1875,-5.1761,-5.1766,-5.183,-5.1819,-5.19,-5.1908,-5.1911,-5.2084,-5.2115,-5.2214,-5.2041,-5.2524,-5.2538,-5.255,-5.2662,-5.2688,-5.271,0,0,0,0,0,-5.139,-5.155,-5.1528,-5.1563,-5.1738,-5.1881,-5.1903,-5.1905,-5.1838,-5.1915,-5.1947,-5.1905,-5.2185,-5.2102,-5.2135,-5.224,-5.2518,-5.2534,-5.2549,-5.2652,-5.2683,-5.2709,0,0,0,0,0,0,-5.1481,-5.156,-5.1536,-5.1726,-5.1798,-5.1869,-5.1966,-5.1938,-5.2029,-5.2016,-5.2012,-5.2031,-5.22,-5.2236,-5.2142,-5.2437,-5.2341,-5.2363,-5.2408,-5.2438,-5.2461,-5.2449,-5.2051,0,0,0,0,0,-5.1524,-5.1635,-5.1697,-5.1858,-5.1896,-5.1925,-5.1987,-5.1983,-5.2056,-5.2085,-5.2129,-5.2201,-5.2304,-5.2373,-5.2471,-5.2667,-5.2683,-5.2755,-5.2779,-5.2798,-5.2818,-5.2924,-5.2957,-5.2607,-5.2606,-5.2606,0,0,-5.1612,-5.1669,-5.1739,-5.1878,-5.1933,-5.2047,-5.1951,-5.2075,-5.2159,-5.2103,-5.2261,-5.2296,-5.2375,-5.2556,-5.2637,-5.259,-5.2918,-5.2817,-5.2833,-5.2842,-5.2943,-5.2976,-5.3006,-5.2617,-5.2615,-5.2613,0,0,-5.1832,-5.1886,-5.2027,-5.2084,-5.2169,-5.2187,-5.2221,-5.2297,-5.2319,-5.2477,-5.2438,-5.2536,-5.2715,-5.2773,-5.2826,-5.3068,-5.3032,-5.3099,-5.3224,-5.3328,-5.3355,-5.338,-5.3466,-5.3497,-5.3119,-5.3119,-5.3119,0,-5.1931,-5.2102,-5.2102,-5.2231,-5.2293,-5.2249,-5.2391,-5.2446,-5.2558,-5.2601,-5.2547,-5.2772,-5.2821,-5.3015,-5.3074,-5.3118,-5.3156,-5.3091,-5.3352,-5.3376,-5.3399,-5.3481,-5.3514,-5.3127,-5.3126,-5.3125,-5.3124,0,-5.222,-5.2339,-5.2443,-5.2554,-5.2628,-5.2762,-5.2781,-5.2855,-5.2844,-5.2868,-5.3029,-5.3088,-5.3197,-5.3242,-5.3232,-5.3435,-5.3403,-5.3351,-5.3255,-5.344,-5.3518,-5.3549,-5.3138,-5.3135,-5.3133,-5.3131,0,0,-5.2502,-5.2612,-5.2651,-5.2701,-5.2791,-5.2883,-5.3014,-5.3123,-5.3187,-5.3265,-5.3375,-5.3527,-5.348,-5.354,-5.3535,-5.3626,-5.3814,-5.3562,-5.3564,-5.3608,-5.4042,-5.4081,-5.4118,-5.3791,-5.3797,-5.3802,-5.4035,0,-5.2729,-5.2963,-5.2967,-5.3181,-5.3291,-5.325,-5.3365,-5.3432,-5.3457,-5.3553,-5.358,-5.3689,-5.3617,-5.3653,-5.3741,-5.3773,-5.3901,-5.3756,-5.3892,-5.3897,-5.3875,-5.4159,-5.4201,-5.4419,-5.4065,-5.4071,-5.4074,0,-5.3026,-5.3116,-5.3341,-5.3416,-5.3462,-5.3566,-5.3666,-5.3758,-5.3833,-5.3845,-5.3912,-5.3894,-5.4027,-5.3926,-5.4108,-5.4009,-5.4065,-5.4089,-5.4097,-5.4111,-5.3998,-5.418,-5.4488,-5.4521,-5.4122,-5.4118,-5.4115,0,-5.321,-5.3387,-5.3545,-5.3589,-5.368,-5.3754,-5.3795,-5.3863,-5.3929,-5.4015,-5.4057,-5.4158,-5.4213,-5.429,-5.4299,-5.4224,-5.4482,-5.4382,-5.4495,-5.4495,-5.4552,-5.4549,-5.4874,-5.4587,-5.4586,-5.4586,-5.4585,0,-5.3464,-5.3604,-5.363,-5.3727,-5.3882,-5.3884,-5.4037,-5.4071,-5.4133,-5.4235,-5.4204,-5.43,-5.4306,-5.4404,-5.4411,-5.4561,-5.4586,-5.4598,-5.4599,-5.4602,-5.4601,-5.4639,-5.4624,-5.4594,-5.4593,-5.4591,-5.4589,0,-5.3697,-5.372,-5.389,-5.3962,-5.3984,-5.4095,-5.4156,-5.4248,-5.427,-5.44,-5.443,-5.4464,-5.4578,-5.4595,-5.4727,-5.4732,-5.4913,-5.4896,-5.4888,-5.4886,-5.4999,-5.4989,-5.5362,-5.5411,-5.509,-5.5093,-5.5096,0,-5.3858,-5.3965,-5.4049,-5.4117,-5.4162,-5.427,-5.4337,-5.4343,-5.4413,-5.4506,-5.4587,-5.4698,-5.4788,-5.4971,-5.5007,-5.5108,-5.5095,-5.5218,-5.511,-5.511,-5.5097,-5.5092,-5.5102,-5.524,-5.5243,-5.5246,-5.5248,0,-5.4142,-5.4148,-5.4247,-5.435,-5.4431,-5.4512,-5.4588,-5.4645,-5.4659,-5.474,-5.4857,-5.4927,-5.5063,-5.5174,-5.5274,-5.5314,-5.5284,-5.5282,-5.5314,-5.5319,-5.531,-5.5317,-5.4947,-5.5274,-5.5271,-5.5269,-5.5268,-5.5267,-5.4344,-5.4437,-5.4512,-5.4623,-5.4681,-5.4753,-5.4844,-5.4878,-5.4976,-5.5089,-5.5085,-5.5215,-5.5285,-5.5417,-5.5464,-5.5563,-5.5523,-5.5568,-5.558,-5.5592,-5.5603,-5.5294,-5.5581,-5.5581,-5.558,-5.5579,-5.5579,0,-5.4627,-5.4673,-5.4775,-5.4884,-5.4971,-5.4936,-5.5019,-5.5094,-5.5208,-5.5277,-5.5367,-5.5501,-5.5608,-5.5652,-5.5757,-5.5828,-5.5817,-5.5855,-5.5851,-5.586,-5.5633,-5.5596,-5.5863,-5.5863,-5.5863,-5.5863,-5.5863,-5.5863,-5.4784,-5.4941,-5.4956,-5.514,-5.5184,-5.5312,-5.5363,-5.5428,-5.5484,-5.5636,-5.5726,-5.5755,-5.5814,-5.5922,-5.6019,-5.6028,-5.6069,-5.6114,-5.6118,-5.5905,-5.5876,-5.5849,-5.5814,-5.6122,-5.6122,-5.6336,-5.6338,-5.634]}]]